Location: Newark
(0.5300°S, 127.4800°E)
Time: 18:52:21
(UTC+00:00)

A-11 Canister half - Pass Details

Date: 16 September 2019
Orbit: 1514 x 1686 km, 47.2° (Epoch: 23 October)

Event Time Altitude Azimuth Distance (km) Brightness Sun altitude
Rises 13:16:55 0° 291° (WNW) 4,806 12.1 -57.9°
Reaches altitude 10° 13:20:46 10° 278° (W) 3,850 11.4 -58.9°
Enters shadow 13:23:51 18° 262° (W) 3,254 10.9 -59.6°
Maximum altitude 13:28:20 25° 227° (SW) 2,891 - -60.8°
Drops below altitude 10° 13:36:08 10° 176° (S) 3,938 - -62.7°
Sets 13:40:11 0° 163° (SSE) 4,938 - -63.7°
